St. Petersburg Airport, FL

2:32 AM EDT on June 27, 2017 (GMT -0400)
Saint Petersburg-Clearwater International

Weather History for KPIE - March, 2013

Change the Weather History Date:

Wednesday, March 20, 2013

  Actual Average Record
Temperature  
Mean Temperature 66 °F -  
Max Temperature 73 °F 76 °F 86 °F (2003)
Min Temperature 59 °F 60 °F 48 °F (1956)
Cooling Degree Days 1    
Growing Degree Days 16 (Base 50)    
Moisture  
Dew Point 61 °F    
Average Humidity 82    
Maximum Humidity 94    
Minimum Humidity 59    
Precipitation  
Precipitation 0.14 in - - ()
Sea Level Pressure  
Sea Level Pressure 29.93 in    
Wind  
Wind Speed 5 mph (NNW)    
Max Wind Speed 18 mph    
Max Gust Speed 23 mph    
Visibility 10 miles    
Events Rain    
Averages and records for this station are not official NWS values.
T = Trace of Precipitation, MM = Missing Value Source: NWS Daily Summary

Daily Weather History Graph

Daily Weather History Graph

Search for Another Location

Airport or City:

Trip Planner

Search our weather history database for the weather conditions in past years. The results will help you decide how hot, cold, wet, or windy it might be!

Date:

Astronomy

Mar. 20, 2013 Rise Set
Actual Time 7:34 AM EDT 7:42 PM EDT
Civil Twilight 7:10 AM EDT 8:05 PM EDT
Nautical Twilight 6:43 AM EDT 8:32 PM EDT
Astronomical Twilight 6:16 AM EDT 9:00 PM EDT
Moon 1:43 PM EDT (3/20) 2:45 AM EDT (3/20)
Length of Visible Light 12h 54m
Length of Day
12h 07m
First Quarter, 59% of the Moon is Illuminated
Mar 20
First Quarter
Mar 27
Full
Apr 3
Last Quarter
Apr 10
New
Apr 18
First Quarter

Hourly Weather History & Observations

Time (EDT) Temp. Dew Point Humidity Pressure Visibility Wind Dir Wind Speed Gust Speed Precip Events Conditions
12:53 AM 66.0 °F 62.1 °F 87% 29.99 in 10.0 mi North 4.6 mph - N/A   Clear
1:53 AM 66.0 °F 62.1 °F 87% 29.96 in 10.0 mi Calm Calm - N/A   Clear
2:53 AM 66.9 °F 63.0 °F 87% 29.95 in 10.0 mi NE 5.8 mph - N/A   Mostly Cloudy
3:53 AM 66.9 °F 62.1 °F 84% 29.94 in 10.0 mi Calm Calm - N/A   Overcast
4:53 AM 66.9 °F 62.1 °F 84% 29.93 in 10.0 mi Calm Calm - N/A   Mostly Cloudy
5:53 AM 66.9 °F 61.0 °F 81% 29.94 in 10.0 mi ENE 4.6 mph - N/A   Mostly Cloudy
6:53 AM 66.0 °F 62.1 °F 87% 29.94 in 10.0 mi Calm Calm - 0.00 in Rain Light Rain
7:53 AM 66.9 °F 63.0 °F 87% 29.94 in 10.0 mi East 5.8 mph - 0.01 in   Mostly Cloudy
8:53 AM 66.9 °F 63.0 °F 87% 29.94 in 9.0 mi East 4.6 mph - N/A   Clear
9:35 AM 68.0 °F 64.4 °F 88% 29.96 in 10.0 mi East 5.8 mph - N/A   Scattered Clouds
9:53 AM 69.1 °F 64.0 °F 84% 29.96 in 9.0 mi East 3.5 mph - N/A   Mostly Cloudy
10:08 AM 69.8 °F 64.4 °F 83% 29.96 in 9.0 mi East 4.6 mph - N/A   Mostly Cloudy
10:46 AM 69.8 °F 64.4 °F 83% 29.97 in 9.0 mi SE 3.5 mph - N/A   Clear
10:53 AM 70.0 °F 64.0 °F 81% 29.98 in 9.0 mi Calm Calm - N/A   Clear
11:53 AM 71.1 °F 64.0 °F 78% 29.97 in 10.0 mi SSE 4.6 mph - N/A   Clear
12:53 PM 73.0 °F 57.9 °F 59% 29.94 in 10.0 mi SSW 12.7 mph - N/A   Partly Cloudy
1:53 PM 72.0 °F 59.0 °F 64% 29.93 in 10.0 mi West 17.3 mph 23.0 mph N/A   Clear
2:53 PM 73.0 °F 61.0 °F 66% 29.89 in 10.0 mi West 12.7 mph 20.7 mph N/A   Overcast
3:53 PM 72.0 °F 61.0 °F 68% 29.86 in 10.0 mi WNW 9.2 mph - N/A   Mostly Cloudy
4:53 PM 72.0 °F 60.1 °F 66% 29.83 in 10.0 mi WSW 4.6 mph - N/A   Mostly Cloudy
5:53 PM 71.1 °F 59.0 °F 66% 29.87 in 10.0 mi West 13.8 mph - N/A   Mostly Cloudy
6:53 PM 66.9 °F 63.0 °F 87% 29.91 in 6.0 mi West 18.4 mph 21.9 mph 0.02 in Rain Light Rain
7:29 PM 64.4 °F 62.6 °F 94% 29.92 in 6.0 mi WNW 10.4 mph - 0.09 in Rain Light Rain
7:38 PM 64.4 °F 60.8 °F 88% 29.92 in 8.0 mi WNW 10.4 mph - 0.10 in Rain Light Rain
7:53 PM 64.9 °F 61.0 °F 87% 29.93 in 10.0 mi NW 15.0 mph 20.7 mph 0.11 in Rain Light Rain
8:53 PM 63.0 °F 59.0 °F 87% 29.90 in 10.0 mi North 8.1 mph 16.1 mph 0.00 in   Overcast
9:00 PM 62.6 °F 59.0 °F 88% 29.90 in 10.0 mi NNE 8.1 mph - N/A   Mostly Cloudy
9:53 PM 62.1 °F 57.0 °F 84% 29.90 in 10.0 mi NNE 6.9 mph - N/A   Partly Cloudy
10:53 PM 59.0 °F 55.9 °F 90% 29.91 in 10.0 mi Calm Calm - N/A   Clear
11:53 PM 60.1 °F 55.9 °F 86% 29.92 in 10.0 mi WNW 4.6 mph - N/A   Mostly Cloudy